Date String (YYYY-MM-DD hh:mm:ss) UTC,Instrument flags,absolute air pressure of the measurement (hPa),sample flow rate (lpm),inlet stack bypass flow (lpm),air temperature of the measurement (°C),ambient temperature measured by the external sensor (°C),aerosol sample conditioner tube jacket temperature (°C),OPC LED temperature (°C),internal box temperature (°C),relative humidity of the measurement (%),span deviation,mass concentration of particles derived from Lorenz-Mie calculation of OPC scattering (μg/m³),mass concentration of particles derived from Lorenz-Mie calculation of OPC scattering (μg/m³),mass concentration of particles derived from Lorenz-Mie calculation of OPC scattering (μg/m³)
DateTimeUTC,F1_M11,P_M11,Q1_M11,Q2_M11,T1_M11,T2_M11,T3_M11,T4_M11,T5_M11,U1_M11,ZSPAN_M11,X0_M11,X2_M11,X1_M11
2023-11-28 02:00:00,SystemResetWarning,0833.6,5.00,000.00,021.7,020.6,000.0,030.3,022.8,10.0,0000.0,0011.98,0005.00,0004.25
2023-11-28 02:01:00,SystemResetWarning,0833.6,5.00,000.00,021.7,020.6,000.0,030.2,022.8,10.0,0000.0,0013.03,0005.01,0004.27
2023-11-28 02:02:00,SystemResetWarning,0833.6,5.00,000.00,021.6,020.6,000.0,030.2,022.8,10.0,0000.0,0013.14,0005.05,0004.28
2023-11-28 02:03:00,SystemResetWarning,0833.6,5.00,000.00,021.6,020.5,000.0,030.2,022.8,10.0,0000.0,0012.37,0005.06,0004.28
2023-11-28 02:04:00,SystemResetWarning,0833.5,5.00,000.00,021.6,020.5,000.0,030.2,022.8,10.1,0000.0,0011.97,0005.08,0004.27
2023-11-28 02:05:00,SystemResetWarning,0833.5,5.01,000.00,021.6,020.5,000.0,030.2,022.7,10.1,0000.0,0012.15,0005.09,0004.26
2023-11-28 02:06:00,SystemResetWarning,0833.5,5.00,000.00,021.6,020.5,000.0,030.1,022.7,10.2,0000.0,0013.06,0005.09,0004.25
2023-11-28 02:07:00,SystemResetWarning,0833.4,5.00,000.00,021.6,020.5,000.0,030.1,022.7,10.2,0000.0,0013.03,0005.07,0004.23
2023-11-28 02:08:00,SystemResetWarning,0833.4,5.00,000.00,021.6,020.5,000.0,030.1,022.7,10.2,0000.0,0012.80,0005.03,0004.20
2023-11-28 02:09:00,SystemResetWarning,0833.4,5.00,000.00,021.5,020.5,000.0,030.1,022.7,10.2,0000.0,0013.02,0004.99,0004.17
2023-11-28 02:10:00,SystemResetWarning,0833.4,5.00,000.00,021.5,020.5,000.0,030.1,022.7,10.2,0000.0,0012.64,0004.91,0004.15
2023-11-28 02:11:00,SystemResetWarning,0833.4,5.00,000.00,021.5,020.5,000.0,030.1,022.7,10.2,0000.0,0012.42,0004.90,0004.14
2023-11-28 02:12:00,SystemResetWarning,0833.4,4.99,000.00,021.5,020.5,000.0,030.0,022.7,10.4,0000.0,0011.91,0004.87,0004.10
2023-11-28 02:13:00,SystemResetWarning,0833.4,5.00,000.00,021.5,020.4,000.0,030.0,022.6,10.3,0000.0,0011.46,0004.80,0004.07
2023-11-28 02:14:00,SystemResetWarning,0833.4,5.00,000.00,021.4,020.4,000.0,030.0,022.6,10.3,0000.0,0011.32,0004.77,0004.04
2023-11-28 02:15:00,SystemResetWarning,0833.4,5.01,000.00,021.4,020.4,000.0,030.0,022.6,10.3,0000.0,0011.27,0004.74,0004.01
2023-11-28 02:16:00,SystemResetWarning,0833.4,5.01,000.00,021.4,020.4,000.0,030.0,022.5,10.3,0000.0,0011.25,0004.73,0003.99
2023-11-28 02:17:00,SystemResetWarning,0833.4,5.00,000.00,021.4,020.4,000.0,029.9,022.5,10.3,0000.0,0010.21,0004.68,0003.96
2023-11-28 02:18:00,SystemResetWarning,0833.4,5.00,000.00,021.4,020.4,000.0,029.9,022.5,10.3,0000.0,0009.93,0004.63,0003.94
2023-11-28 02:19:00,SystemResetWarning,0833.4,5.00,000.00,021.4,020.4,000.0,029.9,022.5,10.3,0000.0,0010.54,0004.60,0003.92
2023-11-28 02:20:00,SystemResetWarning,0833.4,5.00,000.00,021.4,020.4,000.0,029.9,022.5,10.3,0000.0,0010.53,0004.59,0003.90
2023-11-28 02:21:00,SystemResetWarning,0833.4,5.00,000.00,021.3,020.4,000.0,029.9,022.5,10.3,0000.0,0010.02,0004.57,0003.89
2023-11-28 02:22:00,SystemResetWarning,0833.4,5.00,000.00,021.3,020.3,000.0,029.9,022.5,10.3,0000.0,0009.89,0004.52,0003.87
2023-11-28 02:23:00,SystemResetWarning,0833.4,5.00,000.00,021.3,020.3,000.0,029.9,022.5,10.3,0000.0,0009.72,0004.48,0003.85
2023-11-28 02:24:00,SystemResetWarning,0833.4,5.00,000.00,021.3,020.3,000.0,029.8,022.5,10.3,0000.0,0009.64,0004.48,0003.84
2023-11-28 02:25:00,SystemResetWarning,0833.4,5.00,000.00,021.3,020.3,000.0,029.8,022.5,10.3,0000.0,0009.50,0004.44,0003.84
2023-11-28 02:26:00,SystemResetWarning,0833.4,4.99,000.00,021.3,020.2,000.0,029.8,022.5,10.2,0000.0,0009.42,0004.41,0003.84
2023-11-28 02:27:00,SystemResetWarning,0833.4,5.00,000.00,021.3,020.2,000.0,029.8,022.5,10.3,0000.0,0009.36,0004.37,0003.83
2023-11-28 02:28:00,SystemResetWarning,0833.4,5.01,000.00,021.3,020.2,000.0,029.8,022.5,10.5,0000.0,0009.42,0004.39,0003.84
2023-11-28 02:29:00,SystemResetWarning,0833.4,5.01,000.00,021.3,020.2,000.0,029.8,022.5,10.3,0000.0,0009.51,0004.39,0003.84
2023-11-28 02:30:00,SystemResetWarning,0833.4,5.00,000.00,021.3,020.3,000.0,029.8,022.5,10.4,0000.0,0008.91,0004.41,0003.84
2023-11-28 02:31:00,SystemResetWarning,0833.4,4.99,000.00,021.3,020.3,000.0,029.7,022.5,10.5,0000.0,0008.71,0004.38,0003.82
2023-11-28 02:32:00,SystemResetWarning,0833.4,5.00,000.00,021.3,020.3,000.0,029.7,022.4,10.5,0000.0,0008.45,0004.37,0003.81
2023-11-28 02:33:00,SystemResetWarning,0833.4,4.99,000.00,021.2,020.2,000.0,029.7,022.4,10.5,0000.0,0008.39,0004.34,0003.79
2023-11-28 02:34:00,SystemResetWarning,0833.4,5.00,000.00,021.2,020.2,000.0,029.7,022.4,10.5,0000.0,0007.94,0004.34,0003.77
2023-11-28 02:35:00,SystemResetWarning,0833.4,5.00,000.00,021.2,020.2,000.0,029.7,022.4,10.5,0000.0,0008.00,0004.35,0003.77
2023-11-28 02:36:00,SystemResetWarning,0833.4,5.00,000.00,021.2,020.2,000.0,029.7,022.4,10.5,0000.0,0008.25,0004.40,0003.77
2023-11-28 02:37:00,SystemResetWarning,0833.4,5.00,000.00,021.2,020.2,000.0,029.7,022.4,10.5,0000.0,0008.85,0004.36,0003.75
2023-11-28 02:38:00,SystemResetWarning,0833.4,5.01,000.00,021.2,020.2,000.0,029.7,022.4,10.5,0000.0,0008.79,0004.35,0003.73
2023-11-28 02:39:00,SystemResetWarning,0833.4,5.00,000.00,021.2,020.2,000.0,029.7,022.4,10.5,0000.0,0008.76,0004.31,0003.71
2023-11-28 02:40:00,SystemResetWarning,0833.4,5.00,000.00,021.2,020.2,000.0,029.6,022.4,10.5,0000.0,0008.82,0004.27,0003.69
2023-11-28 02:41:00,SystemResetWarning,0833.4,5.00,000.00,021.2,020.2,000.0,029.6,022.5,10.5,0000.0,0008.83,0004.27,0003.68
2023-11-28 02:42:00,SystemResetWarning,0833.4,5.00,000.00,021.2,020.3,000.0,029.6,022.5,10.5,0000.0,0008.84,0004.26,0003.67
2023-11-28 02:43:00,SystemResetWarning,0833.4,5.00,000.00,021.2,020.3,000.0,029.6,022.5,10.5,0000.0,0009.05,0004.29,0003.66
2023-11-28 02:44:00,SystemResetWarning,0833.4,5.00,000.00,021.2,020.3,000.0,029.6,022.4,10.6,0000.0,0009.83,0004.34,0003.67
2023-11-28 02:45:00,SystemResetWarning,0833.4,5.00,000.00,021.2,020.3,000.0,029.6,022.4,10.6,0000.0,0009.99,0004.37,0003.71
2023-11-28 02:46:00,SystemResetWarning,0833.4,4.99,000.00,021.2,020.3,000.0,029.6,022.5,10.5,0000.0,0010.59,0004.42,0003.72
2023-11-28 02:47:00,SystemResetWarning,0833.4,5.00,000.00,021.2,020.3,000.0,029.6,022.5,10.5,0000.0,0011.26,0004.40,0003.73
2023-11-28 02:48:00,SystemResetWarning,0833.4,5.01,000.00,021.2,020.3,000.0,029.6,022.4,10.5,0000.0,0011.12,0004.46,0003.76
2023-11-28 02:49:00,SystemResetWarning,0833.4,5.00,000.00,021.2,020.3,000.0,029.6,022.4,10.5,0000.0,0011.05,0004.50,0003.79
2023-11-28 02:50:00,SystemResetWarning,0833.4,5.00,000.00,021.2,020.3,000.0,029.6,022.4,10.5,0000.0,0011.17,0004.55,0003.80
2023-11-28 02:51:00,SystemResetWarning,0833.4,5.01,000.00,021.2,020.3,000.0,029.6,022.4,10.5,0000.0,0011.48,0004.59,0003.83
2023-11-28 02:52:00,SystemResetWarning,0833.4,5.01,000.00,021.2,020.4,000.0,029.6,022.4,10.5,0000.0,0011.53,0004.61,0003.85
2023-11-28 02:53:00,SystemResetWarning,0833.4,5.00,000.00,021.2,020.4,000.0,029.6,022.5,10.5,0000.0,0011.48,0004.61,0003.87
2023-11-28 02:54:00,SystemResetWarning,0833.4,4.99,000.00,021.2,020.4,000.0,029.6,022.5,10.5,0000.0,0012.05,0004.65,0003.91
2023-11-28 02:55:00,SystemResetWarning,0833.4,4.99,000.00,021.2,020.4,000.0,029.6,022.5,10.5,0000.0,0011.40,0004.66,0003.93
2023-11-28 02:56:00,SystemResetWarning,0833.4,4.99,000.00,021.2,020.4,000.0,029.6,022.5,10.5,0000.0,0011.37,0004.68,0003.96
2023-11-28 02:57:00,SystemResetWarning,0833.4,5.01,000.00,021.2,020.4,000.0,029.6,022.5,10.5,0000.0,0011.08,0004.66,0003.98
2023-11-28 02:58:00,SystemResetWarning,0833.4,5.00,000.00,021.2,020.4,000.0,029.6,022.5,10.5,0000.0,0010.35,0004.66,0004.01
2023-11-28 02:59:00,SystemResetWarning,0833.4,5.01,000.00,021.2,020.4,000.0,029.6,022.5,10.5,0000.0,0009.70,0004.69,0004.03
